Time,TemperatureF,DewpointF,PressureIn,WindDirection,WindDirectionDegrees,WindSpeedMPH,WindSpeedGustMPH,Humidity,HourlyPrecipIn,Conditions,Clouds,dailyrainin,SoftwareType,DateUTC
2013-02-19 00:02:00,44.0,41.0,29.61,South,181,18.0,24.0,88,0.04,,,0.04,,2013-02-19 05:02:00,
2013-02-19 00:13:00,44.0,41.0,29.61,South,181,18.0,24.0,88,0.04,,,0.04,,2013-02-19 05:13:00,
2013-02-19 00:22:00,43.0,40.0,29.60,South,181,17.0,23.0,88,0.04,,,0.04,,2013-02-19 05:22:00,
2013-02-19 00:32:00,43.0,40.0,29.59,South,171,14.0,22.0,88,0.04,,,0.04,,2013-02-19 05:32:00,
2013-02-19 00:43:00,43.0,40.0,29.59,South,171,14.0,22.0,88,0.04,,,0.04,,2013-02-19 05:43:00,
2013-02-19 00:52:00,43.0,40.0,29.58,South,190,17.0,25.0,88,0.02,,,0.04,,2013-02-19 05:52:00,
2013-02-19 01:03:00,43.0,40.0,29.57,South,171,14.0,19.0,88,0.00,,,0.04,,2013-02-19 06:03:00,
2013-02-19 01:12:00,43.0,40.0,29.57,South,171,14.0,19.0,88,0.00,,,0.04,,2013-02-19 06:12:00,
2013-02-19 01:22:00,43.0,39.0,29.56,SSW,202,15.0,22.0,87,0.00,,,0.04,,2013-02-19 06:22:00,
2013-02-19 01:33:00,43.0,40.0,29.55,SSW,192,16.0,23.0,88,0.00,,,0.04,,2013-02-19 06:33:00,
2013-02-19 01:42:00,43.0,40.0,29.55,SSW,192,16.0,23.0,88,0.00,,,0.04,,2013-02-19 06:42:00,
2013-02-19 01:52:00,43.0,40.0,29.55,SSW,192,16.0,23.0,88,0.00,,,0.04,,2013-02-19 06:52:00,
2013-02-19 02:02:00,43.0,40.0,29.55,SSW,192,16.0,23.0,88,0.00,,,0.04,,2013-02-19 07:02:00,
2013-02-19 03:02:00,43.0,40.0,29.50,SSW,203,15.0,23.0,88,0.00,,,0.06,,2013-02-19 08:02:00,
2013-02-19 03:11:00,43.0,40.0,29.50,SSW,203,15.0,23.0,88,0.00,,,0.06,,2013-02-19 08:11:00,
2013-02-19 03:22:00,43.0,40.0,29.50,SSW,213,18.0,23.0,89,0.00,,,0.06,,2013-02-19 08:22:00,
2013-02-19 03:32:00,43.0,40.0,29.50,SSW,213,18.0,23.0,89,0.00,,,0.06,,2013-02-19 08:32:00,
2013-02-19 03:42:00,43.0,40.0,29.50,SSW,213,18.0,23.0,89,0.00,,,0.06,,2013-02-19 08:42:00,
2013-02-19 03:52:00,39.0,36.0,29.53,WSW,244,20.0,29.0,90,0.01,,,0.07,,2013-02-19 08:52:00,
2013-02-19 04:02:00,36.0,34.0,29.55,WNW,284,18.0,27.0,91,0.02,,,0.08,,2013-02-19 09:02:00,
2013-02-19 04:22:00,35.0,33.0,29.56,WSW,249,15.0,26.0,91,0.02,,,0.08,,2013-02-19 09:22:00,
2013-02-19 04:32:00,34.0,32.0,29.57,West,259,16.0,22.0,92,0.01,,,0.08,,2013-02-19 09:32:00,
2013-02-19 04:42:00,34.0,32.0,29.57,West,259,16.0,22.0,92,0.01,,,0.08,,2013-02-19 09:42:00,
2013-02-19 04:52:00,33.0,31.0,29.57,West,279,13.0,21.0,92,0.01,,,0.08,,2013-02-19 09:52:00,
2013-02-19 05:02:00,33.0,31.0,29.57,West,279,13.0,21.0,92,0.01,,,0.08,,2013-02-19 10:02:00,
2013-02-19 05:11:00,33.0,31.0,29.57,West,279,13.0,21.0,92,0.01,,,0.08,,2013-02-19 10:11:00,
2013-02-19 05:22:00,32.0,30.0,29.59,WSW,247,15.0,21.0,91,0.00,,,0.08,,2013-02-19 10:22:00,
2013-02-19 05:32:00,31.0,29.0,29.60,West,271,20.0,28.0,91,0.00,,,0.08,,2013-02-19 10:32:00,
2013-02-19 05:42:00,31.0,29.0,29.60,West,271,20.0,28.0,91,0.00,,,0.08,,2013-02-19 10:42:00,
2013-02-19 05:52:00,30.0,28.0,29.62,WSW,254,19.0,31.0,91,0.00,,,0.08,,2013-02-19 10:52:00,
2013-02-19 06:01:00,30.0,28.0,29.62,WSW,254,19.0,31.0,91,0.00,,,0.08,,2013-02-19 11:01:00,
2013-02-19 06:11:00,30.0,28.0,29.62,WSW,254,19.0,31.0,91,0.00,,,0.08,,2013-02-19 11:11:00,
2013-02-19 06:22:00,29.0,27.0,29.64,WSW,237,22.0,28.0,91,0.00,,,0.08,,2013-02-19 11:22:00,
2013-02-19 06:32:00,28.0,26.0,29.65,WSW,245,21.0,29.0,91,0.00,,,0.08,,2013-02-19 11:32:00,
2013-02-19 06:42:00,28.0,26.0,29.65,WSW,245,21.0,29.0,91,0.00,,,0.08,,2013-02-19 11:42:00,
2013-02-19 06:52:00,28.0,25.0,29.66,WSW,244,23.0,29.0,89,0.00,,,0.08,,2013-02-19 11:52:00,
2013-02-19 07:02:00,27.0,23.0,29.67,WSW,257,22.0,33.0,86,0.00,,,0.08,,2013-02-19 12:02:00,
2013-02-19 07:12:00,27.0,23.0,29.67,WSW,257,22.0,33.0,86,0.00,,,0.08,,2013-02-19 12:12:00,
2013-02-19 07:22:00,26.0,23.0,29.68,West,260,15.0,32.0,87,0.00,,,0.08,,2013-02-19 12:22:00,
2013-02-19 07:32:00,26.0,23.0,29.68,West,261,18.0,27.0,88,0.00,,,0.08,,2013-02-19 12:32:00,
2013-02-19 07:42:00,26.0,23.0,29.68,West,261,18.0,27.0,88,0.00,,,0.08,,2013-02-19 12:42:00,
2013-02-19 07:52:00,25.0,21.0,29.70,West,262,15.0,26.0,86,0.00,,,0.08,,2013-02-19 12:52:00,
2013-02-19 08:02:00,25.0,21.0,29.70,SW,232,19.0,27.0,85,0.00,,,0.08,,2013-02-19 13:02:00,
2013-02-19 08:11:00,25.0,21.0,29.70,SW,232,19.0,27.0,85,0.00,,,0.08,,2013-02-19 13:11:00,
2013-02-19 08:22:00,24.0,20.0,29.72,West,260,21.0,32.0,83,0.00,,,0.08,,2013-02-19 13:22:00,
2013-02-19 08:32:00,24.0,20.0,29.72,West,260,21.0,32.0,83,0.00,,,0.08,,2013-02-19 13:32:00,
2013-02-19 08:42:00,24.0,20.0,29.72,West,260,21.0,32.0,83,0.00,,,0.08,,2013-02-19 13:42:00,
2013-02-19 08:52:00,24.0,20.0,29.73,West,263,18.0,33.0,83,0.00,,,0.08,,2013-02-19 13:52:00,
2013-02-19 09:02:00,24.0,20.0,29.74,WSW,250,17.0,27.0,84,0.00,,,0.08,,2013-02-19 14:02:00,
2013-02-19 09:12:00,24.0,20.0,29.74,WSW,250,17.0,27.0,84,0.00,,,0.08,,2013-02-19 14:12:00,
2013-02-19 09:22:00,24.0,20.0,29.74,WSW,256,17.0,25.0,83,0.00,,,0.08,,2013-02-19 14:22:00,
2013-02-19 09:33:00,24.0,20.0,29.74,WSW,256,17.0,25.0,83,0.00,,,0.08,,2013-02-19 14:33:00,
2013-02-19 09:42:00,24.0,20.0,29.74,WSW,256,17.0,25.0,83,0.00,,,0.08,,2013-02-19 14:42:00,
2013-02-19 09:52:00,25.0,21.0,29.74,West,262,17.0,25.0,84,0.00,,,0.08,,2013-02-19 14:52:00,
2013-02-19 10:02:00,24.0,19.0,29.75,WSW,250,23.0,33.0,82,0.00,,,0.08,,2013-02-19 15:02:00,
2013-02-19 10:11:00,24.0,19.0,29.75,WSW,250,23.0,33.0,82,0.00,,,0.08,,2013-02-19 15:11:00,
2013-02-19 10:22:00,24.0,19.0,29.75,WSW,250,23.0,33.0,82,0.00,,,0.08,,2013-02-19 15:22:00,
2013-02-19 10:32:00,23.0,18.0,29.76,WSW,248,20.0,27.0,82,0.00,,,0.08,,2013-02-19 15:32:00,
2013-02-19 10:42:00,23.0,18.0,29.76,WSW,248,20.0,27.0,82,0.00,,,0.08,,2013-02-19 15:42:00,
2013-02-19 10:52:00,23.0,19.0,29.76,West,259,18.0,26.0,84,0.00,,,0.08,,2013-02-19 15:52:00,
2013-02-19 11:02:00,23.0,19.0,29.76,West,271,16.0,27.0,84,0.00,,,0.08,,2013-02-19 16:02:00,
2013-02-19 11:11:00,23.0,19.0,29.76,West,271,16.0,27.0,84,0.00,,,0.08,,2013-02-19 16:11:00,
2013-02-19 11:22:00,23.0,18.0,29.76,SW,231,22.0,30.0,82,0.00,,,0.08,,2013-02-19 16:22:00,
2013-02-19 11:32:00,23.0,18.0,29.77,WSW,255,23.0,31.0,80,0.00,,,0.08,,2013-02-19 16:32:00,
2013-02-19 11:42:00,23.0,18.0,29.77,WSW,255,23.0,31.0,80,0.00,,,0.08,,2013-02-19 16:42:00,
2013-02-19 11:52:00,23.0,17.0,29.78,West,269,20.0,30.0,79,0.00,,,0.08,,2013-02-19 16:52:00,
2013-02-19 12:01:00,22.0,17.0,29.79,WSW,244,22.0,30.0,81,0.00,,,0.08,,2013-02-19 17:01:00,
2013-02-19 12:11:00,22.0,17.0,29.79,WSW,244,22.0,30.0,81,0.00,,,0.08,,2013-02-19 17:11:00,
2013-02-19 12:21:00,22.0,17.0,29.79,West,261,22.0,29.0,81,0.00,,,0.08,,2013-02-19 17:21:00,
2013-02-19 12:32:00,22.0,16.0,29.80,SW,234,21.0,31.0,78,0.00,,,0.08,,2013-02-19 17:32:00,
2013-02-19 12:42:00,22.0,16.0,29.80,SW,234,21.0,31.0,78,0.00,,,0.08,,2013-02-19 17:42:00,
2013-02-19 12:52:00,22.0,16.0,29.79,West,271,17.0,25.0,78,0.00,,,0.08,,2013-02-19 17:52:00,
2013-02-19 13:02:00,22.0,17.0,29.79,WSW,244,21.0,32.0,81,0.00,,,0.08,,2013-02-19 18:02:00,
2013-02-19 13:11:00,22.0,17.0,29.79,WSW,244,21.0,32.0,81,0.00,,,0.08,,2013-02-19 18:11:00,
2013-02-19 13:21:00,22.0,17.0,29.80,West,261,18.0,30.0,80,0.00,,,0.08,,2013-02-19 18:21:00,
2013-02-19 13:32:00,22.0,17.0,29.80,West,261,18.0,30.0,80,0.00,,,0.08,,2013-02-19 18:32:00,
2013-02-19 13:42:00,22.0,17.0,29.80,West,261,18.0,30.0,80,0.00,,,0.08,,2013-02-19 18:42:00,
2013-02-19 13:52:00,22.0,16.0,29.81,WSW,239,12.0,29.0,78,0.00,,,0.08,,2013-02-19 18:52:00,
2013-02-19 14:01:00,22.0,16.0,29.81,West,281,16.0,25.0,78,0.00,,,0.08,,2013-02-19 19:01:00,
2013-02-19 14:11:00,22.0,16.0,29.81,West,281,16.0,25.0,78,0.00,,,0.08,,2013-02-19 19:11:00,
2013-02-19 14:21:00,22.0,17.0,29.81,West,263,15.0,22.0,80,0.00,,,0.08,,2013-02-19 19:21:00,
2013-02-19 14:32:00,22.0,17.0,29.81,West,276,14.0,26.0,80,0.00,,,0.08,,2013-02-19 19:32:00,
2013-02-19 14:42:00,22.0,17.0,29.81,West,276,14.0,26.0,80,0.00,,,0.08,,2013-02-19 19:42:00,
2013-02-19 14:52:00,22.0,17.0,29.82,West,276,15.0,25.0,82,0.00,,,0.08,,2013-02-19 19:52:00,
2013-02-19 15:02:00,21.0,17.0,29.83,West,263,16.0,26.0,86,0.00,,,0.08,,2013-02-19 20:02:00,
2013-02-19 15:12:00,21.0,17.0,29.83,West,263,16.0,26.0,86,0.00,,,0.08,,2013-02-19 20:12:00,
2013-02-19 15:22:00,21.0,17.0,29.85,West,277,21.0,28.0,83,0.00,,,0.08,,2013-02-19 20:22:00,
2013-02-19 15:32:00,20.0,16.0,29.85,WSW,250,19.0,29.0,83,0.00,,,0.08,,2013-02-19 20:32:00,
2013-02-19 15:42:00,20.0,16.0,29.85,WSW,250,19.0,29.0,83,0.00,,,0.08,,2013-02-19 20:42:00,
2013-02-19 15:52:00,20.0,15.0,29.86,WNW,283,17.0,28.0,80,0.00,,,0.08,,2013-02-19 20:52:00,
2013-02-19 16:02:00,20.0,15.0,29.88,WSW,254,15.0,23.0,79,0.00,,,0.08,,2013-02-19 21:02:00,
2013-02-19 16:11:00,20.0,15.0,29.88,WSW,254,15.0,23.0,79,0.00,,,0.08,,2013-02-19 21:11:00,
2013-02-19 16:21:00,19.0,15.0,29.88,WNW,282,17.0,26.0,84,0.00,,,0.08,,2013-02-19 21:21:00,
2013-02-19 16:32:00,20.0,15.0,29.90,West,269,18.0,24.0,82,0.00,,,0.08,,2013-02-19 21:32:00,
2013-02-19 16:42:00,20.0,15.0,29.90,West,269,18.0,24.0,82,0.00,,,0.08,,2013-02-19 21:42:00,
2013-02-19 16:51:00,20.0,14.0,29.91,WNW,299,15.0,25.0,78,0.00,,,0.08,,2013-02-19 21:51:00,
2013-02-19 17:02:00,20.0,14.0,29.91,WSW,248,15.0,23.0,78,0.00,,,0.08,,2013-02-19 22:02:00,
2013-02-19 17:11:00,20.0,14.0,29.91,WSW,248,15.0,23.0,78,0.00,,,0.08,,2013-02-19 22:11:00,
2013-02-19 17:22:00,20.0,14.0,29.92,WSW,250,16.0,25.0,77,0.00,,,0.08,,2013-02-19 22:22:00,
2013-02-19 17:32:00,19.0,14.0,29.93,WNW,286,15.0,22.0,80,0.00,,,0.08,,2013-02-19 22:32:00,
2013-02-19 17:42:00,19.0,14.0,29.93,WNW,286,15.0,22.0,80,0.00,,,0.08,,2013-02-19 22:42:00,
2013-02-19 17:52:00,19.0,14.0,29.94,WSW,257,14.0,24.0,79,0.00,,,0.08,,2013-02-19 22:52:00,
2013-02-19 18:01:00,18.0,13.0,29.95,West,267,13.0,21.0,81,0.00,,,0.08,,2013-02-19 23:01:00,
2013-02-19 18:11:00,18.0,13.0,29.95,West,267,13.0,21.0,81,0.00,,,0.08,,2013-02-19 23:11:00,
2013-02-19 18:21:00,17.0,13.0,29.96,WNW,287,11.0,16.0,85,0.00,,,0.08,,2013-02-19 23:21:00,
2013-02-19 18:32:00,17.0,14.0,29.98,West,272,7.0,20.0,87,0.00,,,0.08,,2013-02-19 23:32:00,
2013-02-19 18:42:00,17.0,14.0,29.98,West,272,7.0,20.0,87,0.00,,,0.08,,2013-02-19 23:42:00,
2013-02-19 18:52:00,16.0,14.0,29.98,WSW,256,10.0,19.0,90,0.00,,,0.08,,2013-02-19 23:52:00,
2013-02-19 19:02:00,16.0,13.0,29.99,West,262,11.0,16.0,89,0.00,,,0.08,,2013-02-20 00:02:00,
2013-02-19 19:11:00,16.0,13.0,29.99,West,262,11.0,16.0,89,0.00,,,0.08,,2013-02-20 00:11:00,
2013-02-19 19:22:00,16.0,13.0,30.00,West,275,7.0,15.0,89,0.00,,,0.08,,2013-02-20 00:22:00,
2013-02-19 19:32:00,16.0,13.0,30.01,WSW,251,11.0,18.0,89,0.00,,,0.08,,2013-02-20 00:32:00,
2013-02-19 19:42:00,16.0,13.0,30.01,WSW,251,11.0,18.0,89,0.00,,,0.08,,2013-02-20 00:42:00,
2013-02-19 19:52:00,16.0,13.0,30.01,SW,218,11.0,17.0,88,0.00,,,0.08,,2013-02-20 00:52:00,
2013-02-19 20:02:00,16.0,13.0,30.02,WSW,248,9.0,17.0,88,0.00,,,0.08,,2013-02-20 01:02:00,
2013-02-19 20:11:00,16.0,13.0,30.02,WSW,248,9.0,17.0,88,0.00,,,0.08,,2013-02-20 01:11:00,
2013-02-19 20:22:00,16.0,13.0,30.03,West,271,9.0,17.0,86,0.00,,,0.08,,2013-02-20 01:22:00,
2013-02-19 20:32:00,16.0,12.0,30.03,WNW,284,6.0,14.0,83,0.00,,,0.08,,2013-02-20 01:32:00,
2013-02-19 20:42:00,16.0,12.0,30.03,WNW,284,6.0,14.0,83,0.00,,,0.08,,2013-02-20 01:42:00,
2013-02-19 20:52:00,15.0,11.0,30.04,WNW,292,9.0,17.0,82,0.00,,,0.08,,2013-02-20 01:52:00,
2013-02-19 21:02:00,16.0,11.0,30.04,WSW,241,9.0,18.0,82,0.00,,,0.08,,2013-02-20 02:02:00,
2013-02-19 21:11:00,16.0,11.0,30.04,WSW,241,9.0,18.0,82,0.00,,,0.08,,2013-02-20 02:11:00,
2013-02-19 21:22:00,15.0,11.0,30.05,WNW,286,3.0,13.0,83,0.00,,,0.08,,2013-02-20 02:22:00,
2013-02-19 21:32:00,15.0,11.0,30.05,NE,53,4.0,12.0,82,0.00,,,0.08,,2013-02-20 02:32:00,
2013-02-19 21:42:00,15.0,11.0,30.05,NE,53,4.0,12.0,82,0.00,,,0.08,,2013-02-20 02:42:00,
2013-02-19 21:52:00,16.0,11.0,30.06,WNW,290,5.0,13.0,79,0.00,,,0.08,,2013-02-20 02:52:00,
2013-02-19 22:02:00,15.0,11.0,30.06,NW,309,7.0,13.0,85,0.00,,,0.08,,2013-02-20 03:02:00,
2013-02-19 22:12:00,15.0,11.0,30.06,NW,309,7.0,13.0,85,0.00,,,0.08,,2013-02-20 03:12:00,
2013-02-19 22:22:00,16.0,11.0,30.06,WSW,256,9.0,15.0,81,0.00,,,0.08,,2013-02-20 03:22:00,
2013-02-19 22:32:00,16.0,10.0,30.06,WSW,254,12.0,18.0,78,0.00,,,0.08,,2013-02-20 03:32:00,
2013-02-19 22:42:00,16.0,10.0,30.06,WSW,254,12.0,18.0,78,0.00,,,0.08,,2013-02-20 03:42:00,
2013-02-19 22:52:00,16.0,10.0,30.06,West,281,8.0,15.0,78,0.00,,,0.08,,2013-02-20 03:52:00,
2013-02-19 23:01:00,16.0,11.0,30.07,West,281,7.0,17.0,79,0.00,,,0.08,,2013-02-20 04:01:00,
2013-02-19 23:11:00,16.0,11.0,30.07,West,281,7.0,17.0,79,0.00,,,0.08,,2013-02-20 04:11:00,
2013-02-19 23:21:00,16.0,11.0,30.07,West,269,12.0,17.0,80,0.00,,,0.08,,2013-02-20 04:21:00,
2013-02-19 23:32:00,16.0,11.0,30.06,West,269,12.0,20.0,79,0.00,,,0.08,,2013-02-20 04:32:00,
2013-02-19 23:42:00,16.0,11.0,30.06,West,269,12.0,20.0,79,0.00,,,0.08,,2013-02-20 04:42:00,
2013-02-19 23:52:00,16.0,11.0,30.06,WSW,244,10.0,21.0,79,0.00,,,0.08,,2013-02-20 04:52:00,